{"data":{"norad_id":57943,"epoch":"2026-05-25T01:39:09.707040Z","epoch_age_seconds":59261,"freshness":"FRESH","line1":"1 57943U 23148J   26145.06886235  .00000407  00000+0  25873-4 0  9991","line2":"2 57943  53.1615  29.6982 0001339  98.0985 262.0168 15.30191843150110","mean_motion":15.30191843,"eccentricity":0.0001339,"inclination_deg":53.1615,"raan_deg":29.6982,"arg_perigee_deg":98.0985,"mean_anomaly_deg":262.0168,"bstar":2.5873e-5,"rev_number":15011,"period_min":94.1058473542,"perigee_km":474.32175775592,"apogee_km":476.1570919625,"semimajor_km":6853.3764248592,"source":"CELESTRAK","updated_at":"2026-05-25T13:38:18.461793Z"}}